Time,TemperatureF,DewpointF,PressureIn,WindDirection,WindDirectionDegrees,WindSpeedMPH,WindSpeedGustMPH,Humidity,HourlyPrecipIn,Conditions,Clouds,dailyrainin,SoftwareType,DateUTC
2013-05-30 00:00:00,51.3,49.0,29.72,SSW,202,7.2,9.1,91,0.00,,,0.00,Rainwise IP-100,2013-05-30 07:00:00,
2013-05-30 00:05:00,51.2,49.0,29.72,South,180,4.9,8.2,91,0.00,,,0.00,Rainwise IP-100,2013-05-30 07:05:00,
2013-05-30 00:10:00,51.1,49.0,29.72,SW,225,2.1,7.7,91,0.00,,,0.00,Rainwise IP-100,2013-05-30 07:10:00,
2013-05-30 00:15:00,51.0,49.0,29.72,SSW,202,5.4,6.8,92,0.00,,,0.00,Rainwise IP-100,2013-05-30 07:15:00,
2013-05-30 00:20:00,50.9,49.0,29.71,SW,225,4.2,7.2,92,0.00,,,0.00,Rainwise IP-100,2013-05-30 07:20:00,
2013-05-30 00:25:00,50.9,49.0,29.72,WSW,247,3.5,9.6,92,0.00,,,0.00,Rainwise IP-100,2013-05-30 07:25:00,
2013-05-30 00:30:00,51.0,49.0,29.71,SW,225,4.0,8.2,92,0.00,,,0.00,Rainwise IP-100,2013-05-30 07:30:00,
2013-05-30 00:35:00,51.0,49.0,29.71,SSW,202,5.6,9.1,92,0.00,,,0.00,Rainwise IP-100,2013-05-30 07:35:00,
2013-05-30 00:40:00,51.0,49.0,29.71,SSW,202,5.6,6.5,92,0.00,,,0.00,Rainwise IP-100,2013-05-30 07:40:00,
2013-05-30 00:45:00,50.9,49.0,29.70,SSW,202,3.3,5.8,92,0.00,,,0.00,Rainwise IP-100,2013-05-30 07:45:00,
2013-05-30 00:50:00,50.9,49.0,29.70,SSW,202,2.6,6.8,92,0.00,,,0.00,Rainwise IP-100,2013-05-30 07:50:00,
2013-05-30 00:55:00,50.9,49.0,29.70,SW,225,3.3,9.6,92,0.00,,,0.00,Rainwise IP-100,2013-05-30 07:55:00,
2013-05-30 01:00:00,50.9,49.0,29.70,SW,225,4.4,7.0,92,0.00,,,0.00,Rainwise IP-100,2013-05-30 08:00:00,
2013-05-30 01:05:00,50.9,49.0,29.70,SSW,202,3.3,6.5,92,0.00,,,0.00,Rainwise IP-100,2013-05-30 08:05:00,
2013-05-30 01:10:00,50.9,49.0,29.70,SSW,202,3.0,6.5,91,0.00,,,0.00,Rainwise IP-100,2013-05-30 08:10:00,
2013-05-30 01:15:00,50.9,49.0,29.70,South,180,4.7,5.6,91,0.00,,,0.00,Rainwise IP-100,2013-05-30 08:15:00,
2013-05-30 01:20:00,50.8,49.0,29.70,SSW,202,2.6,6.1,91,0.00,,,0.00,Rainwise IP-100,2013-05-30 08:20:00,
2013-05-30 01:25:00,50.8,49.0,29.70,SSW,202,3.5,5.6,92,0.00,,,0.00,Rainwise IP-100,2013-05-30 08:25:00,
2013-05-30 01:30:00,50.7,48.0,29.70,SSW,202,3.0,6.3,92,0.00,,,0.00,Rainwise IP-100,2013-05-30 08:30:00,
2013-05-30 01:35:00,50.6,48.0,29.70,SSW,202,1.2,5.8,92,0.00,,,0.00,Rainwise IP-100,2013-05-30 08:35:00,
2013-05-30 01:40:00,50.6,48.0,29.70,SW,225,2.6,6.1,92,0.00,,,0.00,Rainwise IP-100,2013-05-30 08:40:00,
2013-05-30 01:45:00,50.6,48.0,29.70,WSW,247,2.3,6.3,93,0.00,,,0.00,Rainwise IP-100,2013-05-30 08:45:00,
2013-05-30 01:50:00,50.5,48.0,29.70,WSW,247,2.6,5.6,93,0.00,,,0.00,Rainwise IP-100,2013-05-30 08:50:00,
2013-05-30 01:55:00,50.4,48.0,29.71,SSW,202,4.9,7.9,93,0.00,,,0.00,Rainwise IP-100,2013-05-30 08:55:00,
2013-05-30 02:00:00,50.3,48.0,29.70,SSW,202,2.8,6.3,93,0.00,,,0.00,Rainwise IP-100,2013-05-30 09:00:00,
2013-05-30 02:05:00,50.1,47.5,29.70,SSW,202,2.1,6.5,93,0.00,,,0.00,Rainwise IP-100,2013-05-30 09:05:00,
2013-05-30 02:10:00,50.1,48.0,29.70,SW,225,5.1,6.3,94,0.00,,,0.00,Rainwise IP-100,2013-05-30 09:10:00,
2013-05-30 02:15:00,50.0,48.0,29.70,SSW,202,4.7,8.4,94,0.00,,,0.00,Rainwise IP-100,2013-05-30 09:15:00,
2013-05-30 02:20:00,49.9,48.0,29.70,SSW,202,7.0,7.0,94,0.00,,,0.00,Rainwise IP-100,2013-05-30 09:20:00,
2013-05-30 02:25:00,49.7,48.0,29.71,SSW,202,2.3,7.2,94,0.00,,,0.00,Rainwise IP-100,2013-05-30 09:25:00,
2013-05-30 02:30:00,49.6,48.0,29.70,SSW,202,4.2,5.8,94,0.00,,,0.00,Rainwise IP-100,2013-05-30 09:30:00,
2013-05-30 02:35:00,49.6,48.0,29.70,SSW,202,1.9,6.8,95,0.00,,,0.00,Rainwise IP-100,2013-05-30 09:35:00,
2013-05-30 02:40:00,49.4,47.5,29.70,SW,225,3.5,5.4,95,0.00,,,0.00,Rainwise IP-100,2013-05-30 09:40:00,
2013-05-30 02:45:00,49.3,47.5,29.70,SSW,202,3.3,4.9,95,0.00,,,0.00,Rainwise IP-100,2013-05-30 09:45:00,
2013-05-30 02:50:00,49.2,47.5,29.70,SSW,202,4.0,6.1,95,0.00,,,0.00,Rainwise IP-100,2013-05-30 09:50:00,
2013-05-30 02:55:00,49.2,47.5,29.70,SSW,202,4.0,7.7,95,0.00,,,0.00,Rainwise IP-100,2013-05-30 09:55:00,
2013-05-30 03:00:00,49.2,47.5,29.70,SSW,202,3.7,6.1,95,0.00,,,0.00,Rainwise IP-100,2013-05-30 10:00:00,
2013-05-30 03:05:00,49.2,47.5,29.70,SW,225,4.4,5.4,95,0.00,,,0.00,Rainwise IP-100,2013-05-30 10:05:00,
2013-05-30 03:10:00,49.2,47.5,29.70,SW,225,1.9,6.8,95,0.00,,,0.00,Rainwise IP-100,2013-05-30 10:10:00,
2013-05-30 03:15:00,49.1,47.5,29.70,SSW,202,2.3,7.0,95,0.00,,,0.00,Rainwise IP-100,2013-05-30 10:15:00,
2013-05-30 03:20:00,49.1,47.5,29.69,SW,225,2.3,4.2,95,0.00,,,0.00,Rainwise IP-100,2013-05-30 10:20:00,
2013-05-30 03:25:00,49.1,48.0,29.69,SW,225,4.4,5.4,96,0.00,,,0.00,Rainwise IP-100,2013-05-30 10:25:00,
2013-05-30 03:30:00,49.1,48.0,29.69,West,270,5.4,7.5,96,0.00,,,0.00,Rainwise IP-100,2013-05-30 10:30:00,
2013-05-30 03:35:00,49.0,48.0,29.69,SSW,202,2.6,7.2,96,0.00,,,0.00,Rainwise IP-100,2013-05-30 10:35:00,
2013-05-30 03:40:00,49.0,48.0,29.70,SW,225,2.6,5.6,96,0.00,,,0.00,Rainwise IP-100,2013-05-30 10:40:00,
2013-05-30 03:45:00,49.0,48.0,29.70,SSW,202,3.3,6.8,96,0.00,,,0.00,Rainwise IP-100,2013-05-30 10:45:00,
2013-05-30 03:50:00,49.0,48.0,29.70,SSW,202,4.7,9.1,96,0.00,,,0.00,Rainwise IP-100,2013-05-30 10:50:00,
2013-05-30 03:55:00,48.9,48.0,29.70,SW,225,4.7,7.9,96,0.00,,,0.00,Rainwise IP-100,2013-05-30 10:55:00,
2013-05-30 04:00:00,49.0,48.0,29.70,SSW,202,5.4,7.5,96,0.00,,,0.00,Rainwise IP-100,2013-05-30 11:00:00,
2013-05-30 04:05:00,48.9,48.0,29.69,SSW,202,6.5,8.2,96,0.00,,,0.00,Rainwise IP-100,2013-05-30 11:05:00,
2013-05-30 04:10:00,48.9,48.0,29.70,WSW,247,4.2,7.5,96,0.00,,,0.00,Rainwise IP-100,2013-05-30 11:10:00,
2013-05-30 04:15:00,48.9,48.0,29.70,SW,225,4.7,8.6,96,0.00,,,0.00,Rainwise IP-100,2013-05-30 11:15:00,
2013-05-30 04:20:00,49.0,48.0,29.70,SW,225,3.3,8.6,96,0.00,,,0.00,Rainwise IP-100,2013-05-30 11:20:00,
2013-05-30 04:25:00,48.9,48.0,29.71,SSW,202,5.8,8.4,96,0.00,,,0.00,Rainwise IP-100,2013-05-30 11:25:00,
2013-05-30 04:31:00,48.9,48.0,29.71,SW,225,7.5,8.2,97,0.00,,,0.00,Rainwise IP-100,2013-05-30 11:31:00,
2013-05-30 04:36:00,49.0,48.0,29.71,SW,225,4.7,7.7,97,0.00,,,0.00,Rainwise IP-100,2013-05-30 11:36:00,
2013-05-30 04:41:00,48.9,48.0,29.71,SW,225,3.7,7.0,97,0.00,,,0.00,Rainwise IP-100,2013-05-30 11:41:00,
2013-05-30 04:46:00,48.8,48.0,29.70,WSW,247,2.8,7.7,97,0.00,,,0.00,Rainwise IP-100,2013-05-30 11:46:00,
2013-05-30 04:51:00,48.7,48.0,29.71,SSW,202,4.0,8.2,97,0.00,,,0.00,Rainwise IP-100,2013-05-30 11:51:00,
2013-05-30 04:56:00,48.7,48.0,29.70,SW,225,4.4,6.3,97,0.00,,,0.00,Rainwise IP-100,2013-05-30 11:56:00,
2013-05-30 05:01:00,48.7,48.0,29.70,SSW,202,1.6,7.7,97,0.00,,,0.00,Rainwise IP-100,2013-05-30 12:01:00,
2013-05-30 05:06:00,48.6,48.0,29.70,SW,225,3.3,7.7,97,0.00,,,0.00,Rainwise IP-100,2013-05-30 12:06:00,
2013-05-30 05:11:00,48.6,48.0,29.71,SSW,202,5.4,7.2,97,0.00,,,0.00,Rainwise IP-100,2013-05-30 12:11:00,
2013-05-30 05:16:00,48.6,48.0,29.71,SSW,202,3.5,6.1,97,0.00,,,0.00,Rainwise IP-100,2013-05-30 12:16:00,
2013-05-30 05:21:00,48.6,48.0,29.71,South,180,3.7,7.5,97,0.00,,,0.00,Rainwise IP-100,2013-05-30 12:21:00,